This demonstration page uses our WeatherBlox Daily Observations layout. Learn more.

Left ArrowRight Arrow

39.12711, -84.51439

Hourly Observations for July 26, 2020

Temp ( °F °C ) Dew Point ( °F °C ) Humidity (%) Winds ( mph kmh ) Pressure ( in mb ) Visibility ( mi km ) Precip ( " mm )
12:53 am 00:53 Clear 70 21.1 68 20 93 93 Calm 30.11 1020 10 16 0.00 0.00
1:53 am 01:53 Clear 70 21.1 68 20 93 93 Calm 30.10 1019 10 16 0.00 0.00
2:53 am 02:53 Clear 69 20.6 68 20 96 96 Calm 30.10 1019 10 16 0.00 0.00
3:53 am 03:53 Clear 69 20.6 67 19.4 93 93 Calm 30.10 1019 10 16 0.00 0.00
4:53 am 04:53 Clear 69 20.6 67 19.4 93 93 Calm 30.10 1019 9 14 0.00 0.00
5:53 am 05:53 Clear 67 19.4 66 18.9 97 97 Calm 30.11 1020 9 14 0.00 0.00
6:53 am 06:53 Sunny with Mist and Fog 68 20 66 18.9 93 93 Calm 30.12 1020 6 10 0.00 0.00
7:53 am 07:53 Sunny 71 21.7 69 20.6 94 94 Calm 30.12 1020 8 13 0.00 0.00
8:53 am 08:53 Sunny 76 24.4 70 21.1 82 82 Calm 30.12 1020 10 16 0.00 0.00
9:53 am 09:53 Sunny 80 26.7 71 21.7 74 74 Calm 30.12 1020 10 16 0.00 0.00
10:53 am 10:53 Mostly Sunny 84 28.9 72 22.2 67 67 SSW 7 11 30.11 1020 10 16 0.00 0.00
11:53 am 11:53 Partly Cloudy 88 31.1 71 21.7 57 57 W 7 11 30.11 1020 10 16 0.00 0.00
12:53 pm 12:53 Partly Cloudy 89 31.7 71 21.7 55 55 W 8 13 30.11 1020 10 16 0.00 0.00
1:53 pm 13:53 Mostly Sunny 90 32.2 69 20.6 50 50 W 7 11 30.09 1019 10 16 0.00 0.00
2:53 pm 14:53 Partly Cloudy 90 32.2 69 20.6 50 50 SW 5 7 30.06 1018 10 16 0.00 0.00
3:53 pm 15:53 Sunny 92 33.3 68 20 46 46 WNW 7 11 30.04 1017 10 16 0.00 0.00
4:53 pm 16:53 Mostly Cloudy 92 33.3 69 20.6 47 47 Calm 30.02 1017 10 16 0.00 0.00
5:53 pm 17:53 Sunny 91 32.8 69 20.6 49 49 SW 8 13 30.01 1016 10 16 0.00 0.00
6:53 pm 18:53 Sunny 89 31.7 71 21.7 55 55 SW 7 11 30.01 1016 10 16 0.00 0.00
7:53 pm 19:53 Sunny 86 30 73 22.8 65 65 SSW 5 7 29.99 1016 10 16 0.00 0.00
8:53 pm 20:53 Sunny 80 26.7 74 23.3 82 82 S 7 11 29.99 1016 10 16 0.00 0.00
9:53 pm 21:53 Partly Cloudy 80 26.7 72 22.2 76 76 SW 6 9 30.01 1016 10 16 0.00 0.00
10:53 pm 22:53 Clear 81 27.2 72 22.2 74 74 SW 7 11 30.02 1017 10 16 0.00 0.00
11:53 pm 23:53 Clear 77 25 71 21.7 82 82 Calm 30.02 1017 10 16 0.00 0.00

Powered by AerisWeather